Regional Weather Roundup
Issued by NWS

Home | Current Version | Previous Version | Text Only | Print | Product List | Glossary On
Versions: 1 2 3 4 5 6 7 8 9 10 11 12 13 14 15 16 17 18 19 20 21 22 23 24 25 26 27 28 29 30 31 32 33 34 35 36 37 38 39 40 41 42 43 44 45 46 47 48 49 50
000
ASUS43 KMPX 262110
RWRMN
WEATHER ROUNDUP FOR MINNESOTA
NATIONAL WEATHER SERVICE TWIN CITIES/CHANHASSEN MN
300 PM CST MON JAN 26 2015


NOTE: "FAIR" INDICATES FEW OR NO CLOUDS BELOW 12,000 FEET WITH NO
SIGNIFICANT WEATHER AND/OR OBSTRUCTIONS TO VISIBILITY. N/A MEANS
CURRENT SKY AND/OR WEATHER CONDITIONS ARE NOT AVAILABLE.

MNZ060>063-068>070-262200-
   Twin Cities Metro

CITY           SKY/WX    TMP DP  RH WIND       PRES   REMARKS
TWIN CITIES    PTSUNNY   43  32  65 NW16      29.75R
ST PAUL        CLOUDY    44  33  65 W14       29.76R
CRYSTAL        CLOUDY    43  32  65 NW17G23   29.75R
BLAINE         CLOUDY    45  34  65 NW16G26   29.74R
LAKEVILLE      MOSUNNY   41  34  75 W14G20    29.75R
EDEN PRAIRIE   MOSUNNY   43  33  68 NW15      29.76R
SOUTH ST PAUL  CLOUDY    46  32  59 NW13G20   29.74R
LAKE ELMO      CLOUDY    41  34  75 NW8       29.75R
$$
MNZ001>005-007-008-013>017-022>024-027-028-262200-
   Northwest Minnesota

CITY           SKY/WX    TMP DP  RH WIND       PRES   REMARKS
BEMIDJI        CLOUDY    33  28  81 NW20G25   29.77R WCI  22
HALLOCK        CLOUDY    28  25  86 NW13      29.89R WCI  18
ROSEAU         CLOUDY    30  25  80 NW14      29.85R WCI  20
WARROAD        CLOUDY    28  25  86 NW13      29.83R WCI  18
THIEF RVR FALL CLOUDY    30  25  80 N17       29.86R WCI  18
CROOKSTON      CLOUDY    30  27  86 N22       29.89R WCI  17
FOSSTON        CLOUDY    30  27  86 NW14      29.84R WCI  20
DETROIT LAKES  CLOUDY    32  30  93 NW23G29   29.84R WCI  19
MOORHEAD       CLOUDY    37  36  93 N16       29.88R
PARK RAPIDS    CLOUDY    37  28  70 NW14G23   29.77R
MAHNOMEN       CLOUDY    31  28  89 NW17G25   29.85R WCI  20
$$
MNZ006-009>011-018-025>026-262200-
   North Central Minnesota

CITY           SKY/WX    TMP DP  RH WIND       PRES   REMARKS
BAUDETTE       CLOUDY    28  23  81 N10G21    29.79R WCI  19
FLAG ISLAND    CLOUDY    27  21  80 N15       29.80R WCI  15
INTL FALLS     CLOUDY    28  23  81 N13       29.75R WCI  17
WASKISH        CLOUDY    32  27  80 NW9G16    29.79R WCI  24
BIG FORK       CLOUDY    34  28  80 NW9G18    29.74R WCI  26
LONGVILLE      CLOUDY    36  28  75 NW9G16    29.74R
GRAND RAPIDS   CLOUDY    36  30  80 NW14      29.72R
CRANE LAKE     CLOUDY    27  23  86 N7        29.76R WCI  19
ORR            CLOUDY    28  25  86 NW5       29.70R WCI  23
COOK           CLOUDY    28  27  93 NW10G16   29.72R WCI  19
WALKER         CLOUDY    35  29  79 NW10      29.76R WCI  27
$$
MNZ012-019>021-037-262200-
   Northeast Minnesota

CITY           SKY/WX    TMP DP  RH WIND       PRES   REMARKS
DULUTH         LGT SNOW  30  26  85 NW5       29.68R FOG     WCI  25
ELY            LGT SNOW  25  23  93 CALM      29.69R VSB 3/4
HIBBING        CLOUDY    34  28  79 N15       29.70R WCI  24
EVELETH        MIX PCPN  30  30 100 CALM      29.70R
DULUTH HARBOR  MIX PCPN  28  27  93 CALM      29.73R
TWO HARBORS    LGT SNOW  28  25  86 CALM      29.69R
SILVER BAY     LGT SNOW  27  23  86 CALM      29.70R
GRAND MARAIS     N/A     26  22  84 CALM      29.76R
G MARAIS ARPRT LGT SNOW  19  16  86 CALM      29.69R
$$
MNZ029>031-032-039>041-046>048-054>057-064-262200-
   West Central Minnesota

CITY           SKY/WX    TMP DP  RH WIND       PRES   REMARKS
FERGUS FALLS   CLOUDY    37  28  70 N18G26    29.86R
WHEATON        MOSUNNY   41  32  70 NW20G26   29.88R
MORRIS         CLOUDY    41  34  75 NW20G25   29.83R
ALEXANDRIA     CLOUDY    38  30  73 NW15G26   29.81R
ELBOW LAKE     CLOUDY    37  32  83 NW14      29.84R
WADENA         CLOUDY    36  28  75 NW21G28   29.79R
GLENWOOD       CLOUDY    37  34  87 NW15      29.82R
APPLETON       MOSUNNY   45  36  70 NW21      29.86R
BENSON         CLOUDY    43  34  70 N21G28    29.84R
ORTONVILLE     SUNNY     45  34  65 NW14G23   29.86R
MADISON        SUNNY     46  37  71 NW21      29.86R
WILLMAR        CLOUDY    41  34  75 NW24G30   29.84R
$$
MNZ033>034-036-042>043-049>051-058-059-262200-
   Central Minnesota

CITY           SKY/WX    TMP DP  RH WIND       PRES   REMARKS
ST CLOUD       CLOUDY    41  32  70 W15       29.76R
SAUK CENTRE    CLOUDY    38  31  76 NW24G30   29.80R
PAYNESVILLE    CLOUDY    37  32  82 W12G17    29.80R
AITKIN         CLOUDY    39  30  70 W12G18    29.72R
PINE RIVER     CLOUDY    37  28  70 NW12G21   29.79R
BRAINERD       CLOUDY    38  29  70 NW18G28   29.75R
STAPLES        CLOUDY    37  28  70 NW23G29   29.77R
LONG PRAIRIE   CLOUDY    36  30  80 W24       29.79R
LITTLE FALLS   CLOUDY    39  30  70 NW10G17   29.76R
LITCHFIELD     CLOUDY    43  36  75 NW13G21   29.80R
BUFFALO        CLOUDY    41  32  70 W12       29.79R
MAPLE LAKE     CLOUDY    41  35  77 W9G17     29.78R
$$
MNZ037-044-045-052-053-262200-
   East Central Minnesota

CITY           SKY/WX    TMP DP  RH WIND       PRES   REMARKS
PRINCETON      CLOUDY    43  32  65 W12       29.75R
MORA           CLOUDY    39  30  70 NW10G17   29.74R
CAMBRIDGE      CLOUDY    45  30  57 W10G18    29.72R
RUSH CITY      CLOUDY    40  32  74 NW9G18    29.73R
MOOSE LAKE     CLOUDY    36  32  87 NW6       29.69R
HINCKLEY       CLOUDY    37  34  87 NW8       29.72R
CLOQUET        LGT SNOW  30  30 100 CALM      29.70R
MCGREGOR       CLOUDY    36  32  87 NW12      29.72R
$$
MNZ071>073-080-081-089-090-097-098-262200-
   Southwest Minnesota

CITY           SKY/WX    TMP DP  RH WIND       PRES   REMARKS
MONTEVIDEO     CLOUDY    43  37  81 N15G25    29.86R
GRANITE FALLS  CLOUDY    43  36  74 NW20      29.86R
CANBY          SUNNY     45  35  68 NW20G28   29.87R
MARSHALL       MOSUNNY   45  34  65 N23G30    29.86R
REDWOOD FALLS  CLOUDY    44  34  67 NW14G25   29.83R
OLIVIA         PTSUNNY   41  34  75 NW21      29.82R
PIPESTONE      SUNNY     45  36  70 NW17G23   29.86R
WINDOM         MOSUNNY   45  37  76 NW18G26   29.84R
WORTHINGTON    SUNNY     45  34  65 NW21      29.86R
JACKSON        MOSUNNY   45  36  70 NW21      29.84R
TRACY          MOSUNNY   45  38  75 NW20      29.85R
SLAYTON        SUNNY     42  36  77 NW20      29.85R
$$
MNZ065>067-074>077-082>085-091>093-262200-
   South Central Minnesota

CITY           SKY/WX    TMP DP  RH WIND       PRES   REMARKS
MANKATO        CLOUDY    45  36  70 NW20G26   29.79R
NEW ULM        MOSUNNY   43  36  75 NW23      29.80S
ST JAMES       PTSUNNY   45  36  70 NW18      29.83R
FAIRMONT       MOSUNNY   45  36  70 NW18G25   29.81R
GLENCOE        MOSUNNY   43  37  81 W14       29.79R
FARIBAULT      MOSUNNY   41  34  75 W14G20    29.78R
OWATONNA       MOSUNNY   41  36  81 NW18      29.77R
WASECA         SUNNY     41  36  81 NW18      29.79R
ALBERT LEA     PTSUNNY   43  37  81 NW9       29.77R
$$
MNZ078>079-086>088-094>096-262200-
   Southeast Minnesota

CITY           SKY/WX    TMP DP  RH WIND       PRES   REMARKS
ROCHESTER      MOSUNNY   38  32  79 NW17      29.75R
RED WING       CLOUDY    43  32  65 NW6       29.74R
STANTON        PTSUNNY   42  34  73 W13       29.74R
DODGE CENTER   MOSUNNY   39  34  81 NW15G21   29.75R
WINONA         CLOUDY    30  27  86 SE5       29.76R WCI  25
AUSTIN         CLOUDY    39  34  81 NW14      29.76R
PRESTON        PTSUNNY   37  32  81 NW13G18   29.74R
$$
ABBREVIATIONS USED IN REMARKS
   TC - TEMPERATURES IN CELSIUS
  WCI - WIND CHILL INDEX
   HX - HEAT INDEX
  VSB - VISIBILITY
$$


USA.gov is the U.S. government's official web portal to all federal, state and local government web resources and services.